Torna al catalogo

QIANFAN-182

AttivoComunicazioniPO
NORAD 69399·PAYLOAD·🇨🇳 China

Lanciato Jun 4, 2026 da Taiyuan Satellite Launch Center

Loading…

Prossimi Passaggi (prossime 24 ore)

TLE

AggiornatoSource: Space-Track

Epoca: Sep 14, 2026, 13:39 UTC

1 69399U 26124T   26257.56935734  .00000128  00000-0  17931-3 0  9990
2 69399  89.0049 352.6165 0001835 102.6950 257.4406 13.51027454 14090

Traccia QIANFAN-182 in tempo reale con AllMySat

Download on the App Store